Retour au catalogue

COSMOS 1818 COOLANT

LostLEO
NORAD 36937·DEBRIS·🇷🇺 Russia

Lancé Feb 1, 1987 depuis Baikonur Cosmodrome

Loading…

Prochains Passages (prochaines 24 heures)

TLE

PériméSource: Space-Track

Époque: Sep 30, 2022, 17:47 UTC

1 36937U 87011R   22273.74130704  .00000727  00000-0  29132-3 0  9993
2 36937  65.0146  43.0267 0014947 254.6628 105.2807 14.34723512708462

Suivez COSMOS 1818 COOLANT en temps réel avec AllMySat

Download on the App Store